Location: Wieruszow
(51.2830°N, 18.1670°E)
Time: 08:59:03
(UTC+02:00)

ISS - Visible Passes

Search period start: 21 September 2017 00:00
Search period end: 01 October 2017 00:00
Orbit: 402 x 407 km, 51.6° (Epoch: 21 September)

Date Brightness Start Highest point End Pass type
(mag) Time Alt. Az. Time Alt. Az. Time Alt. Az.
26 Sep -1.9 20:28:23 10° SSW 20:29:45 19° S 20:29:45 19° S visible
27 Sep -2.1 19:36:42 10° S 19:39:01 18° SE 19:39:52 16° ESE visible
27 Sep -1.2 21:11:48 10° WSW 21:12:33 16° WSW 21:12:33 16° WSW visible
28 Sep -3.4 20:19:34 10° SW 20:22:31 44° SSE 20:22:31 44° SSE visible
29 Sep -2.8 19:27:28 10° SW 19:30:24 31° SSE 19:32:21 17° E visible
29 Sep -1.9 21:03:22 10° WSW 21:05:01 27° WSW 21:05:01 27° WSW visible
30 Sep -3.9 20:10:59 10° WSW 20:14:15 70° SSE 20:14:44 57° ESE visible
